FREGAT DEB, 46002

Orbit data source: Space-Track

FREGAT DEB, 46002 is space debris in LEO originally from a launch on Mon, 18 Jul 2011 UTC launched from the Tyuratam Missile And Space Complex (TTMTR). Debris objects in space refer to the collection of defunct objects orbiting the Earth. Examples of debris include non-operational satellites, rocket bodies, and fragments generated from explosions, collisions, or faulty payload assembly.

Loading next visibility...
Identifier
46002, 2011-037HD
Orbit
LEO
Country
Flag of CISCIS
Related business
Manufacturer
Lavochkin
Mission
Spacecraft
Bus & Motor
Unknown
Mass
Unknown
Launch date (UTC)
2011-07-18 (15 years ago)
Launch vehicle
Unknown
Launch site
Tyuratam Missile And Space Complex (TTMTR)
Object type
Payload
Rocket body
Debris
Shape & HBR
Unknown shape, 0.1 m
Radar Cross Section
Medium (>0.1 m² and <1 m²)

Expand to show TLE details & history
Last TLE update: 2 days ago

TLE from 2 days ago
0 FREGAT DEB
1 46002U 11037HD  26171.10101896  .00008849  00000-0  14325-1 0  9992
2 46002  51.2404 193.8933 1394604 179.0560 181.3408 11.57976789228615
Epoch: 2026-06-20T02:25Z
TLE epoch observation values (Epoch: 2026-06-20T02:25:28.038Z)
Latitude
0.00005°
Longitude
-110.79397°
Altitude
3,025.926 km
Speed
6.042 km/s
True Right ascension
12h 55m 34s
True Declination
0° 00' 00"
Sunlit
Object was in daylight at epoch
Visualization orbit readout
Latitude
Unknown
Longitude
Unknown
Altitude
Unknown
Speed
Unknown
Apparent Right ascension
Unknown
Apparent Declination
Unknown
Sunlit
N/A
Visualization observer readout
Local Sidereal Time
21:35:36
Azimuth
Unknown
Elevation
Unknown
Doppler factor
Unknown
Orbital elements
Apogee altitude
3,026.172 km
Perigee altitude
724.154 km
Semi-major axis
8,253.3 km
Eccentricity
0.13946
Inclination
51.2404°
RAAN
193.8933°
Arg. of periapsis
179.056°
True anomaly
181.02261°
Mean anomaly
181.3408°
Eccentric anomaly
181.17671°
Mean motion
2.89469 °/min
Orbital period
124.37 mins
BSTAR
0.014325
Loading maneuver chart data...
Computing Atmospheric mass density...
Loading historical data...
Loading historical data...
Loading historical data...
Loading historical data...
Loading historical data...
Loading historical data...
Loading historical data...

Documentation

Showing up to 5 results
|